K7TUS-6 Weather Reports


Display with metric or nautical units.
time (UTC)temp
F
wind
direction
speed
MPH
gust
MPH
rain 1hr
in
rain 24hr
in
rain mn
in
humidity
%
barometer
mb
20260507060509 53 168 3.0 4.0 0.00 0.00 0.00 1 985.8
20260507060008 53 162 4.0 5.0 0.00 0.00 0.00 1 985.8
20260507055507 52 162 4.0 4.0 0.00 0.00 0.00 1 986.0
20260507055007 52 157 4.0 4.0 0.00 0.00 0.00 1 985.7
20260507054506 52 155 4.0 4.0 0.00 0.00 0.00 1 985.5
20260507054005 52 161 4.0 4.0 0.00 0.00 0.00 1 985.7
20260507053505 52 154 4.0 4.0 0.00 0.00 0.00 1 985.5
20260507053004 52 159 4.0 5.0 0.00 0.00 0.00 1 986.3
20260507052003 51 173 6.0 6.0 0.00 0.00 0.00 2 985.2
20260507051509 51 165 6.0 6.0 0.00 0.00 0.00 2 985.1
20260507051008 50 167 6.0 6.0 0.00 0.00 0.00 2 986.1
20260507050507 50 174 8.0 8.0 0.00 0.00 0.00 2 984.5
20260507050007 50 170 7.0 8.0 0.00 0.00 0.00 3 984.5
20260507045006 49 173 8.0 9.0 0.00 0.00 0.00 4 985.0
20260507044505 49 175 9.0 9.0 0.00 0.00 0.00 5 984.6
20260507044004 49 174 9.0 10.0 0.00 0.00 0.00 5 984.5
20260507043504 49 164 8.0 10.0 0.00 0.00 0.00 5 984.9
20260507043009 49 173 10.0 11.0 0.00 0.00 0.00 5 984.2
20260507042508 49 172 10.0 11.0 0.00 0.00 0.00 5 983.8
20260507042007 49 164 7.0 8.0 0.00 0.00 0.00 4 984.4
20260507041507 49 166 7.0 8.0 0.00 0.00 0.00 3 984.6
20260507041006 49 158 7.0 7.0 0.00 0.00 0.00 2 984.8
20260507040506 49 173 6.0 6.0 0.00 0.00 0.00 2 984.3
20260507040005 49 168 8.0 8.0 0.00 0.00 0.00 2 984.5
20260507035504 49 156 6.0 6.0 0.00 0.00 0.00 3 984.8
20260507035004 49 156 6.0 6.0 0.00 0.00 0.00 3 984.8
20260507034509 49 160 7.0 11.0 0.00 0.00 0.00 2 984.6
20260507034009 49 155 6.0 6.0 0.00 0.00 0.00 2 984.8
20260507033508 49 155 6.0 6.0 0.00 0.00 0.00 2 984.8
20260507033032 49 158 7.0 8.0 0.00 0.00 0.00 2 984.7
20260507032507 49 158 6.0 6.0 0.00 0.00 0.00 2 983.8
20260507032006 49 149 7.0 7.0 0.00 0.00 0.00 2 983.8
20260507031505 50 151 6.0 7.0 0.00 0.00 0.00 2 983.0
20260507031004 50 140 4.0 5.0 0.00 0.00 0.00 3 984.1
20260507030504 50 135 4.0 4.0 0.00 0.00 0.00 3 983.7
20260507030009 50 147 4.0 5.0 0.00 0.00 0.00 1 982.7
20260507025508 50 149 6.0 8.0 0.00 0.00 0.00 2 983.5
20260507025008 50 147 5.0 6.0 0.00 0.00 0.00 3 983.2
20260507024507 51 146 5.0 7.0 0.00 0.00 0.00 3 983.7
20260507024007 52 129 3.0 5.0 0.00 0.00 0.00 2 982.9
20260507023506 52 142 2.0 4.0 0.00 0.00 0.00 3 983.2
20260507022008 53 151 3.0 4.0 0.00 0.00 0.00 2 983.2
20260507021507 54 149 3.0 4.0 0.00 0.00 0.00 1 983.0
20260507021007 55 145 3.0 4.0 0.00 0.00 0.00 100 983.6
20260507020006 58 145 2.0 3.0 0.00 0.00 0.00 1 983.4
20260507015506 59 135 2.0 2.0 0.00 0.00 0.00 1 983.9
20260507015005 60 106 1.0 2.0 0.00 0.00 0.00 1 983.9
20260507014504 61 122 1.0 2.0 0.00 0.00 0.00 1 985.0
20260507013503 63 109 2.0 2.0 0.00 0.00 0.00 1 983.8
20260507013003 63 134 1.0 2.0 0.00 0.00 0.00 1 983.4
20260507012507 64 108 2.0 2.0 0.00 0.00 0.00 1 984.0
20260507012007 65 113 2.0 3.0 0.00 0.00 0.00 1 983.9
20260507011506 66 121 2.0 2.0 0.00 0.00 0.00 1 983.7
20260507011005 67 94 1.0 2.0 0.00 0.00 0.00 1 983.1
20260507010504 70 113 2.0 2.0 0.00 0.00 0.00 1 983.9
20260507010004 70 128 3.0 4.0 0.00 0.00 0.00 1 983.8
20260507005502 70 151 2.0 3.0 0.00 0.00 0.00 1 983.8
20260507005008 69 128 2.0 3.0 0.00 0.00 0.00 1 983.9
20260507004507 67 99 2.0 2.0 0.00 0.00 0.00 1 984.0
20260507004007 67 98 2.0 3.0 0.00 0.00 0.00 1 983.8
20260507003506 68 152 2.0 3.0 0.00 0.00 0.00 1 983.9
20260507003006 67 99 1.0 2.0 0.00 0.00 0.00 1 982.8
20260507002505 68 109 2.0 4.0 0.00 0.00 0.00 1 983.4
20260507002009 69 103 2.0 3.0 0.00 0.00 0.00 1 984.4
20260507001507 68 118 4.0 9.0 0.00 0.00 0.00 1 982.9
20260507001007 68 81 2.0 3.0 0.00 0.00 0.00 1 983.6
20260507000506 69 54 2.0 3.0 0.00 0.00 0.00 1 983.0
20260507000005 67 71 2.0 3.0 0.00 0.00 0.00 1 983.5
20260506235505 67 60 1.0 2.0 0.00 0.00 0.00 1 983.4
20260506235004 69 81 2.0 3.0 0.00 0.00 0.00 1 983.3
20260506234504 67 100 2.0 2.0 0.00 0.00 0.00 1 982.9
20260506234003 64 93 2.0 3.0 0.00 0.00 0.00 100 983.5
20260506233509 66 84 2.0 4.0 0.00 0.00 0.00 1 983.0
20260506233008 65 98 2.0 5.0 0.00 0.00 0.00 1 984.6
20260506232507 65 345 2.0 3.0 0.00 0.00 0.00 1 983.1
20260506232006 71 86 1.0 2.0 0.00 0.00 0.00 1 983.0
20260506231506 72 104 2.0 4.0 0.00 0.00 0.00 1 983.5
20260506231005 70 88 2.0 2.0 0.00 0.00 0.00 1 983.2
20260506230505 68 115 3.0 4.0 0.00 0.00 0.00 1 983.5
20260506230004 69 86 2.0 2.0 0.00 0.00 0.00 1 984.0
20260506225503 68 91 2.0 3.0 0.00 0.00 0.00 1 984.0
20260506225009 67 131 2.0 2.0 0.00 0.00 0.00 1 983.8
20260506224508 66 136 3.0 6.0 0.00 0.00 0.00 1 983.3
20260506224007 66 162 4.0 5.0 0.00 0.00 0.00 1 982.8
20260506223507 65 139 3.0 4.0 0.00 0.00 0.00 1 984.0
20260506223007 62 83 2.0 2.0 0.00 0.00 0.00 2 983.1
20260506222506 61 347 1.0 4.0 0.00 0.00 0.00 100 983.6
20260506222005 65 92 2.0 3.0 0.00 0.00 0.00 3 983.1
20260506221505 63 118 3.0 4.0 0.00 0.00 0.00 3 982.6
20260506221004 60 157 4.0 8.0 0.00 0.00 0.00 3 983.2
20260506220504 62 100 3.0 4.0 0.00 0.00 0.00 2 982.5
20260506220003 61 138 2.0 4.0 0.00 0.00 0.00 2 983.0
20260506215502 61 129 2.0 3.0 0.00 0.00 0.00 1 983.1
20260506215008 61 114 3.0 4.0 0.00 0.00 0.00 2 983.7
20260506214507 61 135 2.0 3.0 0.00 0.00 0.00 6 983.3
20260506214006 61 116 3.0 4.0 0.00 0.00 0.00 6 984.2
20260506213506 59 111 2.0 3.0 0.00 0.00 0.00 5 983.3
20260506213005 57 69 3.0 7.0 0.00 0.00 0.00 4 983.4
20260506212505 58 70 2.0 3.0 0.00 0.00 0.00 4 982.9
20260506212004 59 102 2.0 3.0 0.00 0.00 0.00 4 983.0
20260506211504 60 98 2.0 3.0 0.00 0.00 0.00 4 983.3
20260506211003 60 77 2.0 3.0 0.00 0.00 0.00 5 983.2
20260506210508 60 147 3.0 4.0 0.00 0.00 0.00 5 982.8
20260506210008 58 99 3.0 4.0 0.00 0.00 0.00 7 983.7
20260506205507 56 136 1.0 2.0 0.00 0.00 0.00 6 983.6
20260506205007 60 87 3.0 3.0 0.00 0.00 0.00 5 983.9
20260506204506 58 98 2.0 3.0 0.00 0.00 0.00 6 983.6
20260506204006 56 182 2.0 3.0 0.00 0.00 0.00 8 983.6
20260506203505 55 170 5.0 7.0 0.00 0.00 0.00 7 983.2
20260506203004 56 109 2.0 4.0 0.00 0.00 0.00 7 984.3
20260506202503 56 105 2.0 3.0 0.00 0.00 0.00 7 984.0
20260506202003 53 36 1.0 2.0 0.00 0.00 0.00 7 984.5
20260506201508 53 141 1.0 2.0 0.00 0.00 0.00 11 982.9
20260506201008 51 129 1.0 3.0 0.00 0.00 0.00 9 983.1
20260506200507 56 27 2.0 2.0 0.00 0.00 0.00 5 983.4
20260506200007 56 31 2.0 3.0 0.00 0.00 0.00 4 984.0
20260506195506 57 170 3.0 3.0 0.00 0.00 0.00 5 983.6
20260506195006 58 136 3.0 4.0 0.00 0.00 0.00 6 984.1
20260506194505 59 122 3.0 3.0 0.00 0.00 0.00 7 983.0
20260506194004 59 153 3.0 4.0 0.00 0.00 0.00 6 983.8
20260506193504 59 92 3.0 3.0 0.00 0.00 0.00 7 983.9
20260506193003 58 98 2.0 3.0 0.00 0.00 0.00 5 983.7
20260506192508 57 106 3.0 4.0 0.00 0.00 0.00 5 982.7
20260506192008 56 100 2.0 4.0 0.00 0.00 0.00 8 983.0
20260506191507 56 107 3.0 4.0 0.00 0.00 0.00 9 983.0
20260506191007 54 115 3.0 4.0 0.00 0.00 0.00 8 982.9
20260506190506 55 111 2.0 3.0 0.00 0.00 0.00 7 983.8
20260506190006 57 114 2.0 3.0 0.00 0.00 0.00 5 982.9
20260506185005 57 118 1.0 4.0 0.00 0.00 0.00 8 983.1
20260506184504 57 89 1.0 2.0 0.00 0.00 0.00 10 982.9
20260506184004 53 75 1.0 2.0 0.00 0.00 0.00 9 982.7
20260506183503 53 127 1.0 2.0 0.00 0.00 0.00 10 984.0
20260506183008 50 233 1.0 2.0 0.00 0.00 0.00 13 983.6
20260506182538 51 116 1.0 3.0 0.00 0.00 0.00 12 983.3
20260506182007 50 216 3.0 5.0 0.00 0.00 0.00 13 982.3
20260506181507 50 171 1.0 2.0 0.00 0.00 0.00 14 983.0
20260506181006 49 137 2.0 2.0 0.00 0.00 0.00 18 983.0
20260506180505 46 311 5.0 7.0 0.00 0.00 0.00 14 982.9
20260506180006 47 280 2.0 4.0 0.00 0.00 0.00 14 982.8
20260506175503 49 231 4.0 7.0 0.00 0.00 0.00 11 983.3
20260506175003 47 231 4.0 7.0 0.00 0.00 0.00 10 982.5
20260506174502 51 263 1.0 2.0 0.00 0.00 0.00 10 982.9
20260506174008 50 237 1.0 2.0 0.00 0.00 0.00 9 983.5
20260506173507 50 214 4.0 5.0 0.00 0.00 0.00 8 982.7
20260506173007 50 110 1.0 2.0 0.00 0.00 0.00 11 983.0
20260506172504 52 200 2.0 4.0 0.00 0.00 0.00 9 983.5
20260506172003 50 319 2.0 4.0 0.00 0.00 0.00 7 982.2
20260506171503 54 184 3.0 5.0 0.00 0.00 0.00 8 981.9
20260506171008 56 8 1.0 3.0 0.00 0.00 0.00 4 982.1
20260506170507 58 86 2.0 4.0 0.00 0.00 0.00 3 981.7
20260506170007 57 89 2.0 3.0 0.00 0.00 0.00 5 982.7
20260506165506 57 119 3.0 3.0 0.00 0.00 0.00 5 982.2
20260506165005 56 134 2.0 2.0 0.00 0.00 0.00 6 981.9
20260506164505 53 137 2.0 2.0 0.00 0.00 0.00 7 983.8
20260506164004 51 176 3.0 6.0 0.00 0.00 0.00 5 982.8
20260506163503 53 139 1.0 2.0 0.00 0.00 0.00 6 982.3
20260506163003 53 350 2.0 2.0 0.00 0.00 0.00 6 982.6
20260506162502 56 127 3.0 5.0 0.00 0.00 0.00 5 981.8
20260506162008 55 140 3.0 5.0 0.00 0.00 0.00 6 982.2
20260506161007 54 136 2.0 3.0 0.00 0.00 0.00 9 981.9
20260506160506 53 114 1.0 2.0 0.00 0.00 0.00 10 981.6
20260506160006 52 156 1.0 2.0 0.00 0.00 0.00 9 981.3
20260506155005 53 158 2.0 3.0 0.00 0.00 0.00 7 982.2
20260506154504 52 185 3.0 4.0 0.00 0.00 0.00 8 981.7
20260506154004 51 185 2.0 4.0 0.00 0.00 0.00 11 980.5
20260506153503 50 135 1.0 2.0 0.00 0.00 0.00 10 980.3
20260506153003 49 224 2.0 3.0 0.00 0.00 0.00 9 981.3
20260506152502 50 102 1.0 2.0 0.00 0.00 0.00 9 981.4
20260506152007 50 228 2.0 2.0 0.00 0.00 0.00 6 980.7
20260506151507 50 152 3.0 4.0 0.00 0.00 0.00 4 981.5
20260506151006 49 160 2.0 3.0 0.00 0.00 0.00 1 980.4
20260506150505 47 337 1.0 3.0 0.00 0.00 0.00 1 980.4
20260506150005 48 168 1.0 3.0 0.00 0.00 0.00 1 980.8
20260506145504 46 260 3.0 5.0 0.00 0.00 0.00 1 981.2
20260506145003 45 323 4.0 8.0 0.00 0.00 0.00 1 980.2
20260506144503 46 314 4.0 5.0 0.00 0.00 0.00 1 980.8
20260506144008 45 193 1.0 3.0 0.00 0.00 0.00 1 979.3
20260506143507 43 323 5.0 7.0 0.00 0.00 0.00 1 980.1
20260506143007 41 324 7.0 9.0 0.00 0.00 0.00 1 980.4
20260506142506 41 302 8.0 11.0 0.00 0.00 0.00 1 980.1
20260506141505 41 298 7.0 9.0 0.00 0.00 0.00 1 979.6
20260506141005 40 298 8.0 10.0 0.00 0.00 0.00 1 981.4
20260506140504 41 300 7.0 9.0 0.00 0.00 0.00 1 980.3
20260506140009 41 295 5.0 7.0 0.00 0.00 0.00 1 979.6
20260506135008 42 266 6.0 7.0 0.00 0.00 0.00 1 979.5
20260506134507 42 266 4.0 5.0 0.00 0.00 0.00 1 980.5
20260506134006 41 296 5.0 7.0 0.00 0.00 0.00 1 979.2
20260506133506 40 264 4.0 7.0 0.00 0.00 0.00 1 979.2
20260506133005 41 254 4.0 6.0 0.00 0.00 0.00 1 978.9
20260506132505 40 270 4.0 5.0 0.00 0.00 0.00 1 979.2
20260506132003 39 240 5.0 6.0 0.00 0.00 0.00 1 979.7
20260506131503 39 233 7.0 9.0 0.00 0.00 0.00 1 979.0
20260506131002 38 239 9.0 11.0 0.00 0.00 0.00 1 979.0
20260506130508 38 230 10.0 12.0 0.00 0.00 0.00 1 978.6
20260506130006 38 221 12.0 13.0 0.00 0.00 0.00 1 978.1
20260506125505 38 212 9.0 10.0 0.00 0.00 0.00 1 978.4
20260506125005 38 193 6.0 7.0 0.00 0.00 0.00 3 978.9
20260506124504 38 202 5.0 5.0 0.00 0.00 0.00 5 979.1
20260506124004 37 188 7.0 7.0 0.00 0.00 0.00 7 979.2
20260506123503 37 185 6.0 7.0 0.00 0.00 0.00 10 979.4
20260506123003 37 186 6.0 7.0 0.00 0.00 0.00 8 978.8
20260506122508 38 176 3.0 4.0 0.00 0.00 0.00 5 979.4
20260506122007 38 175 2.0 3.0 0.00 0.00 0.00 7 979.1
20260506121507 38 184 4.0 5.0 0.00 0.00 0.00 5 979.4
20260506121006 37 191 6.0 7.0 0.00 0.00 0.00 5 979.3
20260506120506 38 182 6.0 6.0 0.00 0.00 0.00 6 978.3
20260506120005 38 169 3.0 3.0 0.00 0.00 0.00 12 978.6
20260506115504 38 175 3.0 4.0 0.00 0.00 0.00 15 977.9
20260506115004 38 168 3.0 4.0 0.00 0.00 0.00 14 979.1
20260506114503 38 175 4.0 4.0 0.00 0.00 0.00 14 978.0
20260506114003 38 182 4.0 5.0 0.00 0.00 0.00 12 979.6
20260506113508 39 164 2.0 3.0 0.00 0.00 0.00 9 979.1
20260506112507 38 176 3.0 4.0 0.00 0.00 0.00 10 978.6
20260506112006 37 82 1.0 3.0 0.00 0.00 0.00 13 978.4
20260506111506 36 203 9.0 9.0 0.00 0.00 0.00 10 978.5
20260506110505 35 185 9.0 10.0 0.00 0.00 0.00 19 978.0
20260506110004 36 182 8.0 9.0 0.00 0.00 0.00 21 977.8
20260506105004 36 179 6.0 7.0 0.00 0.00 0.00 24 978.4
20260506104503 36 181 7.0 8.0 0.00 0.00 0.00 24 978.3
20260506104002 36 181 7.0 7.0 0.00 0.00 0.00 35 978.5
20260506103502 36 178 7.0 7.0 0.00 0.00 0.00 37 977.9
20260506103007 37 174 6.0 6.0 0.00 0.00 0.00 34 977.9
20260506102507 37 176 4.0 5.0 0.00 0.00 0.00 29 978.1
20260506101506 37 154 1.0 2.0 0.00 0.00 0.00 27 978.4
20260506101005 37 160 4.0 5.0 0.00 0.00 0.00 23 978.3
20260506100505 35 185 9.0 9.0 0.00 0.00 0.00 31 978.5
20260506095504 35 184 8.0 8.0 0.00 0.00 0.00 44 978.4
20260506095003 35 184 8.0 8.0 0.00 0.00 0.00 44 978.4
20260506094503 35 176 8.0 9.0 0.00 0.00 0.00 44 977.5
20260506094008 35 175 9.0 9.0 0.00 0.00 0.00 43 977.4
20260506093507 35 175 9.0 9.0 0.00 0.00 0.00 43 977.4
20260506092508 35 171 7.0 9.0 0.00 0.00 0.00 42 978.1
20260506092007 35 172 8.0 11.0 0.00 0.00 0.00 41 978.7
20260506091506 35 176 7.0 10.0 0.00 0.00 0.00 40 977.2
20260506091006 36 164 7.0 10.0 0.00 0.00 0.00 38 977.6
20260506090505 36 166 5.0 6.0 0.00 0.00 0.00 37 978.4
20260506090004 36 164 3.0 6.0 0.00 0.00 0.00 39 979.3
20260506085504 36 174 5.0 8.0 0.00 0.00 0.00 40 978.5
20260506085009 36 173 7.0 9.0 0.00 0.00 0.00 38 978.6
20260506084508 36 167 7.0 9.0 0.00 0.00 0.00 35 978.7
20260506084008 36 178 5.0 11.0 0.00 0.00 0.00 38 978.9
20260506083507 36 186 8.0 13.0 0.00 0.00 0.00 32 979.5
20260506081506 37 35 1.0 3.0 0.00 0.00 0.00 35 979.8
20260506081006 37 154 4.0 7.0 0.00 0.00 0.00 32 978.6
20260506080505 37 101 1.0 3.0 0.00 0.00 0.00 38 979.2
20260506073508 37 207 4.0 8.0 0.00 0.00 0.00 29 979.5
20260506072507 38 156 6.0 10.0 0.00 0.00 0.00 27 978.5
20260506072006 37 178 7.0 12.0 0.00 0.00 0.00 27 978.4
20260506071506 37 139 3.0 7.0 0.00 0.00 0.00 30 978.3
20260506070505 37 150 4.0 4.0 0.00 0.00 0.00 32 978.9
20260506062007 37 176 3.0 7.0 0.00 0.00 0.00 28 978.7
20260506061506 37 162 11.0 18.0 0.00 0.00 0.00 31 979.4
20260506061006 37 182 11.0 14.0 0.00 0.00 0.00 31 978.3